Location: Decatur Area Astronomy Club
(40.0275°N, 88.7810°W)
Time: 09:52:26
(UTC-05:00)

Amateur Radio Satellites - All Passes

Search period start: 31 October 2014 09:22
Search period end: 01 November 2014 09:22
Location: Decatur Area Astronomy Club, 40.0275°N, 88.7810°W

Satellite Date Start Highest point End Downlink Frequencies (MHz)
Time Altitude Azimuth
Oscar 11 31 Oct 09:30:53 09:32:41 12° 91° (E) 09:34:28 145.825 FM, Beacon 2401.500 USB
ISS 31 Oct 09:38:46 09:41:34 26° 134° (SE) 09:44:23 145.800 FM
KITSAT 1 31 Oct 09:43:11 09:49:05 23° 103° (ESE) 09:54:58 435.175 FM
Sapphire 31 Oct 10:11:33 10:14:37 15° 42° (NE) 10:17:39 437.095 MHz 1200 baud AX-25 AFSK
HO-68 31 Oct 10:23:59 10:31:11 76° 288° (WNW) 10:38:20 435.675 MHz FM
UKube-1 31 Oct 10:29:44 10:34:04 59° 101° (E) 10:38:21 145.840 MHz, 145.915 MHz
PCSat 31 Oct 10:32:32 10:36:44 22° 47° (NE) 10:40:54 145.825 MHz
ZACube-1 31 Oct 10:38:47 10:42:27 29° 96° (E) 10:46:05 437.345 MHz
Oscar 11 31 Oct 11:04:58 11:09:11 54° 286° (WNW) 11:13:22 145.825 FM, Beacon 2401.500 USB
SO-50 31 Oct 11:11:25 11:15:49 60° 118° (ESE) 11:20:22 436.795 FM
ISS 31 Oct 11:15:03 11:18:09 36° 330° (NNW) 11:21:16 145.800 FM
FUNcube-1 31 Oct 11:21:19 11:25:32 87° 283° (WNW) 11:29:40 145.950 - 145.970 MHz USB
KITSAT 1 31 Oct 11:35:33 11:43:38 75° 302° (WNW) 11:51:45 435.175 FM
Sapphire 31 Oct 11:53:24 11:58:52 85° 62° (ENE) 12:04:18 437.095 MHz 1200 baud AX-25 AFSK
UOSAT-12 31 Oct 11:57:33 12:00:29 17° 109° (ESE) 12:03:27 437.025 FM, 437.400 FM
UKube-1 31 Oct 12:07:42 12:09:44 13° 297° (WNW) 12:11:46 145.840 MHz, 145.915 MHz
HO-68 31 Oct 12:14:00 12:17:42 15° 307° (NW) 12:21:25 435.675 MHz FM
PCSat 31 Oct 12:15:12 12:20:32 59° 246° (WSW) 12:25:50 145.825 MHz
ZACube-1 31 Oct 12:15:29 12:18:42 22° 292° (WNW) 12:21:52 437.345 MHz
Oscar 16 31 Oct 12:30:40 12:34:24 21° 64° (ENE) 12:38:09 437.025 USB, Beacon 2401.1428
SO-50 31 Oct 12:53:35 12:56:47 18° 317° (NW) 13:00:03 436.795 FM
ISS 31 Oct 12:53:57 12:55:36 13° 350° (N) 12:57:14 145.800 FM
Uribyol 2 31 Oct 13:03:48 13:07:18 19° 63° (ENE) 13:10:49 436.500 FM
AO-Echo 31 Oct 13:05:56 13:09:44 22° 65° (ENE) 13:13:37 ?
ITAMSAT 1 31 Oct 13:11:27 13:15:12 20° 64° (ENE) 13:18:58 435.822 SSB
Oscar 19 31 Oct 13:21:14 13:26:16 59° 73° (ENE) 13:31:19 437.125 CW, 437.150 USB
JAS-1B 31 Oct 13:33:24 13:39:07 69° 73° (ENE) 13:44:49 435.800 - 435.900 CW/SSB
KITSAT 1 31 Oct 13:34:40 13:40:28 21° 325° (NW) 13:46:18 435.175 FM
UOSAT-12 31 Oct 13:35:37 13:40:10 54° 306° (NW) 13:44:48 437.025 FM, 437.400 FM
Sapphire 31 Oct 13:39:31 13:41:30 12° 258° (WSW) 13:43:29 437.095 MHz 1200 baud AX-25 AFSK
AO-27 31 Oct 13:57:27 14:02:31 54° 72° (ENE) 14:07:37 436.795 MHz FM
Oscar 16 31 Oct 14:08:26 14:13:24 48° 260° (W) 14:18:22 437.025 USB, Beacon 2401.1428
Saudisat 1A 31 Oct 14:11:07 14:15:08 33° 50° (NE) 14:19:09 436.775 MHz
Gurwin Techsat 1B 31 Oct 14:13:08 14:18:02 39° 69° (ENE) 14:22:57 435.225 FM
TMSAT-1 31 Oct 14:19:43 14:24:26 34° 68° (ENE) 14:29:10 436.925 FM
ISS 31 Oct 14:31:47 14:33:25 13° 10° (N) 14:35:03 145.800 FM
Uribyol 2 31 Oct 14:41:11 14:46:18 57° 259° (W) 14:51:28 436.500 FM
AO-Echo 31 Oct 14:43:26 14:48:09 44° 262° (W) 14:53:04 ?
ITAMSAT 1 31 Oct 14:49:14 14:54:17 51° 260° (W) 14:59:24 435.822 SSB
AO-7 31 Oct 14:58:30 15:05:31 32° 58° (ENE) 15:12:33 29.400 - 29.500 MHz
Uosat F 31 Oct 15:00:01 15:01:33 11° 59° (ENE) 15:03:05 435.120 FM
Oscar 19 31 Oct 15:02:57 15:05:59 16° 269° (W) 15:09:01 437.125 CW, 437.150 USB
JAS-1B 31 Oct 15:27:50 15:30:28 13° 270° (W) 15:33:05 435.800 - 435.900 CW/SSB
AO-27 31 Oct 15:38:52 15:42:20 18° 268° (W) 15:45:50 436.795 MHz FM
Saudisat 1A 31 Oct 15:50:54 15:54:34 26° 247° (WSW) 15:58:13 436.775 MHz
Gurwin Techsat 1B 31 Oct 15:53:46 15:58:05 25° 266° (W) 16:02:26 435.225 FM
JAS-2 31 Oct 15:55:40 15:59:29 16° 55° (NE) 16:03:31 435.800 - 435.900 CW/SSB, 435.910 FM
TMSAT-1 31 Oct 15:59:44 16:04:19 30° 264° (W) 16:08:57 436.925 FM
ISS 31 Oct 16:07:45 16:10:52 35° 30° (NNE) 16:13:59 145.800 FM
Uosat F 31 Oct 16:34:31 16:39:33 89° 256° (WSW) 16:44:38 435.120 FM
AO-7 31 Oct 16:49:44 16:57:50 59° 257° (WSW) 17:06:01 29.400 - 29.500 MHz
OPAL 31 Oct 17:06:44 17:09:02 13° 93° (E) 17:11:20 ?
KITSAT 1 31 Oct 17:35:26 17:39:45 15° 27° (NNE) 17:44:04 435.175 FM
JAS-2 31 Oct 17:37:03 17:43:18 87° 75° (ENE) 17:50:27 435.800 - 435.900 CW/SSB, 435.910 FM
Hamsat 31 Oct 17:40:58 17:45:04 57° 75° (ENE) 17:49:10 145.90 MHz
ISS 31 Oct 17:44:37 17:47:28 26° 226° (SW) 17:50:19 145.800 FM
SO-67 31 Oct 18:25:17 18:27:42 18° 69° (ENE) 18:30:07 435.3500 MHz FM
OPAL 31 Oct 18:43:27 18:48:22 66° 289° (WNW) 18:53:15 ?
STRAND 1 31 Oct 19:01:43 19:06:03 27° 95° (E) 19:10:21 ?
HO-68 31 Oct 19:08:04 19:11:46 15° 53° (NE) 19:15:28 435.675 MHz FM
Hamsat 31 Oct 19:20:14 19:21:21 11° 270° (W) 19:22:28 145.90 MHz
JAS-2 31 Oct 19:26:11 19:29:27 14° 275° (W) 19:32:54 435.800 - 435.900 CW/SSB, 435.910 FM
KITSAT 1 31 Oct 19:29:38 19:37:26 49° 52° (NE) 19:45:10 435.175 FM
SO-50 31 Oct 19:43:28 19:48:10 47° 53° (NE) 19:52:52 436.795 FM
Oscar 10/S400 31 Oct 19:52:14 20:24:12 56° 196° (SSW) 05:31:39 145.825 - 145.975 CW/USB, Beacon 145.810 USB
SO-67 31 Oct 19:57:44 20:00:30 23° 265° (W) 20:03:17 435.3500 MHz FM
UOSAT-12 31 Oct 20:26:50 20:29:49 16° 41° (NE) 20:32:45 437.025 FM, 437.400 FM
AO-40 31 Oct 20:30:09 21:20:14 12° 105° (ESE) 21:57:32 Beacon 2401.320
STRAND 1 31 Oct 20:40:37 20:45:16 35° 291° (WNW) 20:49:53 ?
RS-15 31 Oct 20:48:23 20:59:01 57° 113° (ESE) 21:09:33 29.354 - 29.394 USB, Beacon 29.352 USB
HO-68 31 Oct 20:51:09 20:58:17 77° 72° (ENE) 21:05:29 435.675 MHz FM
UKube-1 31 Oct 21:24:24 21:28:33 47° 72° (ENE) 21:32:45 145.840 MHz, 145.915 MHz
SO-50 31 Oct 21:24:46 21:28:25 21° 249° (WSW) 21:32:04 436.795 FM
KITSAT 1 31 Oct 21:25:20 21:32:38 39° 251° (WSW) 21:39:54 435.175 FM
ZACube-1 31 Oct 21:34:39 21:38:19 25° 69° (ENE) 21:41:55 437.345 MHz
Oscar 11 31 Oct 21:58:56 22:03:15 78° 258° (WSW) 22:07:35 145.825 FM, Beacon 2401.500 USB
UOSAT-12 31 Oct 22:05:48 22:10:31 77° 240° (WSW) 22:15:08 437.025 FM, 437.400 FM
FUNcube-1 31 Oct 22:16:26 22:20:56 69° 75° (ENE) 22:25:22 145.950 - 145.970 MHz USB
MaSat-1 31 Oct 22:22:26 22:26:20 72° 295° (WNW) 22:29:52 437.345 MHz
HO-68 31 Oct 22:41:53 22:46:39 19° 269° (W) 22:51:28 435.675 MHz FM
RS-15 31 Oct 23:01:22 23:11:40 44° 316° (NW) 23:22:02 29.354 - 29.394 USB, Beacon 29.352 USB
UKube-1 31 Oct 23:02:30 23:04:59 15° 268° (W) 23:07:28 145.840 MHz, 145.915 MHz
ZACube-1 31 Oct 23:10:33 23:14:33 30° 263° (W) 23:18:31 437.345 MHz
FUNcube-1 31 Oct 23:56:45 23:57:42 11° 270° (W) 23:58:39 145.950 - 145.970 MHz USB
Sapphire 01 Nov 00:55:46 00:57:08 11° 102° (ESE) 00:58:30 437.095 MHz 1200 baud AX-25 AFSK
PCSat 01 Nov 01:14:39 01:18:26 20° 105° (ESE) 01:22:14 145.825 MHz
JAS-1B 01 Nov 01:16:38 01:22:22 23° 94° (E) 01:28:46 435.800 - 435.900 CW/SSB
RS-15 01 Nov 01:20:38 01:28:00 20° 348° (NNW) 01:35:28 29.354 - 29.394 USB, Beacon 29.352 USB
Oscar 19 01 Nov 01:34:14 01:38:09 22° 94° (E) 01:42:02 437.125 CW, 437.150 USB
AO-27 01 Nov 02:12:03 02:15:53 20° 93° (E) 02:19:40 436.795 MHz FM
Oscar 16 01 Nov 02:20:32 02:25:38 63° 101° (ESE) 02:30:42 437.025 USB, Beacon 2401.1428
Gurwin Techsat 1B 01 Nov 02:31:05 02:34:21 16° 91° (E) 02:37:36 435.225 FM
Sapphire 01 Nov 02:34:18 02:39:42 90° 293° (WNW) 02:45:10 437.095 MHz 1200 baud AX-25 AFSK
TMSAT-1 01 Nov 02:37:40 02:40:13 14° 90° (E) 02:42:46 436.925 FM
AO-Echo 01 Nov 02:50:54 02:56:13 66° 101° (ESE) 03:01:25 ?
Uribyol 2 01 Nov 02:54:33 02:59:40 54° 101° (E) 03:04:43 436.500 FM
PCSat 01 Nov 02:56:05 03:01:23 56° 302° (WNW) 03:06:43 145.825 MHz
ITAMSAT 1 01 Nov 03:02:38 03:07:49 61° 101° (ESE) 03:12:56 435.822 SSB
JAS-1B 01 Nov 03:06:02 03:13:11 71° 287° (WNW) 03:21:45 435.800 - 435.900 CW/SSB
Oscar 19 01 Nov 03:12:50 03:17:39 43° 290° (WNW) 03:22:27 437.125 CW, 437.150 USB
RS-15 01 Nov 03:37:25 03:45:59 25° 25° (NNE) 03:54:45 29.354 - 29.394 USB, Beacon 29.352 USB
AO-27 01 Nov 03:50:36 03:55:37 47° 289° (WNW) 04:00:35 436.795 MHz FM
Oscar 16 01 Nov 04:01:22 04:04:27 16° 298° (WNW) 04:07:31 437.025 USB, Beacon 2401.1428
Gurwin Techsat 1B 01 Nov 04:09:28 04:14:42 60° 287° (WNW) 04:19:54 435.225 FM
TMSAT-1 01 Nov 04:15:21 04:20:39 71° 286° (WNW) 04:25:54 436.925 FM
OPAL 01 Nov 04:20:10 04:24:15 25° 64° (ENE) 04:28:19 ?
Sapphire 01 Nov 04:20:41 04:23:54 16° 317° (NW) 04:27:08 437.095 MHz 1200 baud AX-25 AFSK
AO-Echo 01 Nov 04:31:06 04:34:23 17° 298° (WNW) 04:37:38 ?
Uribyol 2 01 Nov 04:35:08 04:38:41 19° 297° (WNW) 04:42:14 436.500 FM
Uosat F 01 Nov 04:43:21 04:47:45 29° 96° (E) 04:52:06 435.120 FM
ITAMSAT 1 01 Nov 04:43:28 04:46:47 17° 298° (WNW) 04:50:04 435.822 SSB
PCSat 01 Nov 04:44:59 04:46:02 11° 323° (NW) 04:47:05 145.825 MHz
JAS-2 01 Nov 04:48:59 04:53:34 16° 86° (E) 04:58:03 435.800 - 435.900 CW/SSB, 435.910 FM
AO-7 01 Nov 04:51:48 04:59:53 51° 102° (ESE) 05:07:55 29.400 - 29.500 MHz
JAS-1B 01 Nov 04:59:39 05:02:52 14° 303° (WNW) 05:06:18 435.800 - 435.900 CW/SSB
PANSAT 01 Nov 05:24:54 05:27:05 15° 179° (S) 05:29:15 not established
Hamsat 01 Nov 05:29:47 05:30:41 11° 90° (E) 05:31:34 145.90 MHz
RS-15 01 Nov 05:49:52 06:01:01 66° 53° (NE) 06:12:36 29.354 - 29.394 USB, Beacon 29.352 USB
Saudisat 1A 01 Nov 05:55:40 06:00:03 87° 302° (WNW) 06:04:28 436.775 MHz
OPAL 01 Nov 05:58:09 06:02:55 39° 259° (W) 06:07:39 ?
STRAND 1 01 Nov 06:16:55 06:21:36 37° 69° (ENE) 06:26:18 ?
Uosat F 01 Nov 06:22:03 06:26:29 31° 292° (WNW) 06:30:53 435.120 FM
JAS-2 01 Nov 06:31:36 06:39:33 86° 104° (ESE) 06:47:08 435.800 - 435.900 CW/SSB, 435.910 FM
AO-7 01 Nov 06:45:00 06:52:22 37° 300° (WNW) 06:59:46 29.400 - 29.500 MHz
Hamsat 01 Nov 07:02:49 07:06:59 61° 285° (WNW) 07:11:10 145.90 MHz
PANSAT 01 Nov 07:05:15 07:06:30 11° 192° (SSW) 07:07:44 not established
SO-67 01 Nov 07:21:11 07:23:57 22° 95° (E) 07:26:42 435.3500 MHz FM
Saudisat 1A 01 Nov 07:38:18 07:40:17 13° 321° (NW) 07:42:16 436.775 MHz
STRAND 1 01 Nov 07:56:36 08:00:50 26° 265° (W) 08:05:06 ?
RS-15 01 Nov 08:02:59 08:12:42 36° 254° (WSW) 08:22:48 29.354 - 29.394 USB, Beacon 29.352 USB
MaSat-1 01 Nov 08:07:42 08:09:53 29° 250° (WSW) 08:11:58 437.345 MHz
JAS-2 01 Nov 08:18:04 08:23:32 21° 302° (WNW) 08:28:57 435.800 - 435.900 CW/SSB, 435.910 FM
HO-68 01 Nov 08:22:22 08:25:40 13° 89° (E) 08:28:56 435.675 MHz FM
ISS 01 Nov 08:50:41 08:52:34 14° 130° (SE) 08:54:28 145.800 FM
SO-67 01 Nov 08:54:18 08:56:46 19° 290° (WNW) 08:59:13 435.3500 MHz FM
